Regional Weather Roundup
Issued by NWS Raleigh/Durham, NC

Home | Current Version | Previous Version | Text Only | Print | Product List | Glossary On
Versions: 1 2 3 4 5 6 7 8 9 10 11 12 13 14 15 16 17 18 19 20 21 22 23 24 25 26 27 28 29 30 31 32 33 34 35 36 37 38 39 40 41 42 43 44 45 46 47 48 49 50
000
ASUS42 KRAH 210910
RWRRAH
NORTH CAROLINA WEATHER ROUNDUP
NATIONAL WEATHER SERVICE RALEIGH NC
500 AM EDT SUN SEP 21 2014

NOTE: "FAIR" INDICATES FEW OR NO CLOUDS BELOW 12,000 FEET WITH NO
SIGNIFICANT WEATHER AND/OR OBSTRUCTIONS TO VISIBILITY.

NCZ001-053-055-056-065-067-211000-
WESTERN NORTH CAROLINA

CITY           SKY/WX    TMP DP  RH WIND       PRES   REMARKS
ASHEVILLE      CLOUDY    55  54  96 CALM      30.05S FOG
JEFFERSON      NOT AVBL
HICKORY        NOT AVBL
RUTHERFORDTON  NOT AVBL
MOUNT AIRY     NOT AVBL
BOONE          NOT AVBL
$$

NCZ021-022-025-041-071-084-088-211000-
CENTRAL NORTH CAROLINA

CITY           SKY/WX    TMP DP  RH WIND       PRES   REMARKS
CHARLOTTE      PTCLDY    60  57  89 NW6       29.97F
GREENSBORO     PTCLDY    60  57  89 CALM      29.94F
WINSTON-SALEM  CLEAR     58  55  90 N5        29.97F
RALEIGH-DURHAM PTCLDY    64  61  90 N3        29.91F
FORT BRAGG     MOCLDY    67  63  88 NW9       29.87S
FAYETTEVILLE   MOCLDY    69  65  86 N9        29.85F
BURLINGTON     PTCLDY    61  57  87 NW7       29.93F
LAURINBURG     PTCLDY    65  62  90 N8        29.89F
$$

NCZ011-015-027-028-043-044-047-080-103-211000-
NORTHEASTERN NORTH CAROLINA

CITY           SKY/WX    TMP DP  RH WIND       PRES   REMARKS
ROCKY MT-WILSO CLOUDY    68  65  90 N9        29.85F
GREENVILLE     LGT RAIN  68  68 100 N10       29.85F
WASHINGTON     CLOUDY    69  68  97 N9        29.80F
ELIZABETH CITY LGT RAIN  71  70  96 N10       29.82F
MANTEO         DRIZZLE   70  70  98 NE10      29.79F
CAPE HATTERAS  LGT RAIN  70  70 100 N8        29.73F
$$

NCZ078-087-090-091-093-098-101-211000-
SOUTHEASTERN NORTH CAROLINA

CITY           SKY/WX    TMP DP  RH WIND       PRES   REMARKS
LUMBERTON      MOCLDY    67  64  90 NW8       29.86F
GOLDSBORO      CLOUDY    68  68 100 N8        29.82F
KINSTON        DRIZZLE   69  68  97 N12       29.83S
KENANSVILLE    LGT RAIN  68  67  95 NW8       29.83S
NEW BERN       LGT RAIN  73  69  87 N12       29.77F
CHERRY POINT   CLOUDY    72  70  93 N17       29.75F
BEAUFORT       CLOUDY    73  71  93 N20G28    29.71F
JACKSONVILLE   CLOUDY    71  68  90 N16G24    29.76F
WILMINGTON     CLOUDY    70  68  93 N13       29.78R
$$



USA.gov is the U.S. government's official web portal to all federal, state and local government web resources and services.